Du Bois, PA

6:46 AM EST on December 13, 2017 (GMT -0500)
Du Bois-Jefferson County

Weather History for KDUJ - October, 2012

Change the Weather History Date:

Friday, October 5, 2012

  Actual Average Record
Temperature  
Mean Temperature 63 °F 52 °F  
Max Temperature 72 °F 62 °F 83 °F (2007)
Min Temperature 53 °F 43 °F 28 °F (1965)
Degree Days  
Heating Degree Days 2 13  
Month to date heating degree days 21 60  
Since 1 July heating degree days 244 306  
Cooling Degree Days 0 0  
Month to date cooling degree days 2 0  
Year to date cooling degree days 547 360  
Growing Degree Days 12 (Base 50)    
Moisture  
Dew Point 53 °F    
Average Humidity 71    
Maximum Humidity 89    
Minimum Humidity 53    
Precipitation  
Precipitation 0.00 in 0.11 in 6.94 in (1997)
Month to date precipitation 0.04 0.53  
Year to date precipitation 33.77  
Sea Level Pressure  
Sea Level Pressure 30.03 in    
Wind  
Wind Speed 8 mph (SW)    
Max Wind Speed 18 mph    
Max Gust Speed 23 mph    
Visibility 10 miles    
Events      
T = Trace of Precipitation, MM = Missing Value Source: NWS Daily Summary

Daily Weather History Graph

Daily Weather History Graph

Search for Another Location

Airport or City:

Trip Planner

Search our weather history database for the weather conditions in past years. The results will help you decide how hot, cold, wet, or windy it might be!

Date:

Astronomy

Oct. 05, 2012 Rise Set
Actual Time 7:16 AM EDT 6:50 PM EDT
Civil Twilight 6:49 AM EDT 7:17 PM EDT
Nautical Twilight 6:17 AM EDT 7:49 PM EDT
Astronomical Twilight 5:45 AM EDT 8:21 PM EDT
Moon 10:09 PM EDT (10/5) 12:25 PM EDT (10/5)
Length of Visible Light 12h 28m
Length of Day
11h 33m
Waning Gibbous, 74% of the Moon is Illuminated
Oct 5
Waning Gibbous
Oct 8
Last Quarter
Oct 15
New
Oct 21
First Quarter
Oct 29
Full

Hourly Weather History & Observations

Time (EDT) Temp. Dew Point Humidity Pressure Visibility Wind Dir Wind Speed Gust Speed Precip Events Conditions
12:56 AM 54.0 °F 48.9 °F 83% 30.11 in 10.0 mi SW 6.9 mph - N/A   Clear
1:56 AM 54.0 °F 48.9 °F 83% 30.11 in 10.0 mi SW 4.6 mph - N/A   Clear
2:56 AM 55.9 °F 50.0 °F 80% 30.11 in 10.0 mi SW 8.1 mph - N/A   Clear
3:56 AM 55.0 °F 50.0 °F 83% 30.10 in 10.0 mi SW 6.9 mph - N/A   Scattered Clouds
4:56 AM 55.0 °F 51.1 °F 86% 30.10 in 10.0 mi SW 6.9 mph - N/A   Clear
5:56 AM 54.0 °F 50.0 °F 86% 30.09 in 10.0 mi SW 5.8 mph - N/A   Clear
6:56 AM 53.1 °F 50.0 °F 89% 30.11 in 10.0 mi SW 5.8 mph - N/A   Clear
7:56 AM 55.9 °F 52.0 °F 87% 30.11 in 10.0 mi SW 6.9 mph - N/A   Partly Cloudy
8:56 AM 57.9 °F 53.1 °F 84% 30.11 in 10.0 mi SW 10.4 mph - N/A   Clear
9:56 AM 62.1 °F 54.0 °F 75% 30.09 in 10.0 mi WSW 13.8 mph - N/A   Clear
10:56 AM 66.0 °F 54.0 °F 65% 30.08 in 10.0 mi WSW 12.7 mph 17.3 mph N/A   Clear
11:56 AM 68.0 °F 54.0 °F 61% 30.06 in 10.0 mi WSW 11.5 mph 16.1 mph N/A   Mostly Cloudy
12:56 PM 70.0 °F 54.0 °F 57% 30.05 in 10.0 mi WSW 13.8 mph 18.4 mph N/A   Mostly Cloudy
1:56 PM 68.0 °F 55.0 °F 63% 30.04 in 10.0 mi WSW 10.4 mph 17.3 mph N/A   Overcast
2:56 PM 71.1 °F 54.0 °F 55% 30.01 in 10.0 mi WSW 12.7 mph 19.6 mph N/A   Mostly Cloudy
3:56 PM 69.1 °F 55.0 °F 61% 30.00 in 10.0 mi WSW 8.1 mph - N/A   Mostly Cloudy
4:56 PM 66.9 °F 55.0 °F 66% 29.99 in 10.0 mi West 5.8 mph - N/A   Overcast
5:56 PM 66.0 °F 55.9 °F 70% 29.99 in 10.0 mi SW 3.5 mph - N/A   Mostly Cloudy
6:56 PM 64.0 °F 55.9 °F 75% 29.97 in 10.0 mi Calm Calm - N/A   Overcast
7:56 PM 63.0 °F 55.0 °F 75% 29.96 in 10.0 mi Calm Calm - N/A   Clear
8:56 PM 63.0 °F 54.0 °F 72% 29.94 in 10.0 mi South 5.8 mph - N/A   Clear
9:56 PM 63.0 °F 53.1 °F 70% 29.92 in 10.0 mi SSW 5.8 mph - N/A   Partly Cloudy
10:56 PM 63.0 °F 53.1 °F 70% 29.89 in 10.0 mi SSW 6.9 mph - N/A   Overcast
11:56 PM 64.0 °F 52.0 °F 65% 29.87 in 10.0 mi SSW 8.1 mph - N/A   Overcast